Regional Weather Roundup
Issued by NWS

Home | Current Version | Previous Version | Graphics & Text | Print | Product List | Glossary On
Versions: 1 2 3 4 5 6 7 8 9 10 11 12 13 14 15 16 17 18 19 20 21 22 23 24 25 26 27 28 29 30 31 32 33 34 35 36 37 38 39 40 41 42 43 44 45 46 47 48 49 50
000
ASUS43 KFSD 260802
RWRSD

WEATHER ROUNDUP FOR SOUTH DAKOTA
NATIONAL WEATHER SERVICE SIOUX FALLS SD
300 AM CDT TUE MAY 26 2015

NOTE: "FAIR" INDICATES FEW OR NO CLOUDS BELOW 12,000 FEET WITH NO
SIGNIFICANT WEATHER AND/OR OBSTRUCTIONS TO VISIBILITY.


SDZ001>005-009-010-012>017-260900-
NORTHWEST AND NORTH CENTRAL SOUTH DAKOTA

CITY           SKY/WX    TMP DP  RH WIND       PRES   REMARKS
FAITH            N/A     52  50  93 NW5       29.95F
MOBRIDGE       CLOUDY    54  54 100 CALM      29.90S
$$

SDZ012>016-024>037-041>051-057-063-072>074-260900-
SOUTHWEST AND SOUTH CENTRAL SOUTH DAKOTA

CITY           SKY/WX    TMP DP  RH WIND       PRES   REMARKS
RAPID CTY ARPT CLOUDY    51  50  96 NE5       29.95F
PIERRE         CLOUDY    53  51  93 N9        29.90S
CUSTER         CLOUDY    46  44  93 N5        29.98F
ELLSWORTH AFB  CLOUDY    51  51 100 SE1       29.95S
PHILIP         CLOUDY    54  53  97 CALM      29.93S
PINE RIDGE     CLOUDY    54  51  90 NE3       29.94S
WINNER         FAIR      53  47  79 N9        29.89R
$$

SDZ004>011-016>023-039-040-260900-
NORTHEAST SOUTH DAKOTA

CITY           SKY/WX    TMP DP  RH WIND       PRES   REMARKS
ABERDEEN       PTCLDY    52  49  89 NW7       29.88F
WATERTOWN      PTCLDY    51  48  89 N12       29.82F
BROOKINGS      MOCLDY    52  48  87 N5        29.83R
$$

SDZ017-020-022-023-036>040-048>070-260900-
SOUTHEAST SOUTH DAKOTA

CITY           SKY/WX    TMP DP  RH WIND       PRES   REMARKS
SIOUX FALLS    CLOUDY    56  54  93 N6        29.80S
HURON          PTCLDY    54  50  86 N9        29.84F
CHAMBERLAIN    MOCLDY    54  50  85 N6        29.88R
MITCHELL       MOCLDY    54  51  90 N8        29.84S
YANKTON        CLOUDY    57  55  94 N7        29.78S
$$

ABBREVIATIONS USED IN REMARKS
   TC - TEMPERATURE IN CELSIUS
  WCI - WIND CHILL INDEX
   HX - HEAT INDEX
  VSB - VISIBILITY




USA.gov is the U.S. government's official web portal to all federal, state and local government web resources and services.